Aérodrome :
LOGIN :

S'inscrire | Disclaimer

   EN    FR    IT 

 










Légende :    VFR   VFR Marginal   IFR   IFR Intensif   IFR Très Intensif
Visi : 
Plafond : 
>= 8 km
>= 3000ft
5 à 8 km
1000 à 3000 ft
1500m à 5 km
500 à 1000 ft
800 à 1500m
200 à 500 ft
< 800m
< 200 ft
Symboles :   Orages  Brouillard  Fortes neiges  Fortes précipitations  Vent > 20 kt
SIGMETs :   Divers  Orages  Givrage  Turbulence  Onde Orograph.  Cendres Volcan.







- Altitude de l'aérodrome : 2031 ft


LEGT - Madrid Getafe

DERNIER METAR :
  • 251800Z 29007KT 260V350 9999 -TSRA SCT035CB BKN045 17/12 Q1012

METARs EXPIRÉS :
  • 251700Z 31011KT 9999 FEW035TCU BKN045 18/12 Q1012
  • 251600Z 15004KT 9999 FEW030TCU BKN040 19/11 Q1012

Prévision TAF périmée.
Pas de NOTAMs connus pour ce terrain.
1 SIGMET publié pour la FIR Madrid (LECM) :
 
Orages noyés dans la masse
LECM SIGMET 7 VALID 251800/252000 LEVA
LECM MADRID FIR/UIR EMBD TS FCST WI N4154 W00629 - N4322 W00544 - N4306 W00128 - N4205 W00021 - N4146 W00249 - N3832 W00404 - N3827 W00707 - N4154 W00629 TOP FL380 MOV NE NC=



MET'MAP, la Météo Aéronautique d'un coup d'oeil ! - Copyright ORBIFLY Décembre 2007 - Disclaimer

ORBIFLY MET'MAP TEAM :

Programmation & Développement : Alexandra Zaïnal
Conception & Développement : Baudouin d'Aumeries
Co-Programmation & Développement : Marc-Olivier Méhu
Soutien technique & logistique : Manuel Goepfert

Contact : metmap@orbifly.com




SOURCES & CREDITS :

   NOAA